Location: Blienschwiller
(48.3416°N, 7.4182°E)
Time: 06:21:57
(UTC+00:00)

Cosmos 2084 - Pass Details

Date: 18 February 2020
Orbit: 567 x 615 km, 62.8° (Epoch: 28 March)

Event Time Altitude Azimuth Distance (km) Brightness Sun altitude
Rises 05:27:04 0° 209° (SSW) 2,870 6.7 -11.6°
Reaches altitude 10° 05:29:21 10° 205° (SSW) 1,970 5.9 -11.3°
Maximum altitude 05:33:45 59° 127° (SE) 716 4.2 -10.5°
Drops below altitude 10° 05:38:09 10° 48° (NE) 1,977 6.8 -9.8°
Sets 05:40:27 0° 45° (NE) 2,881 7.6 -9.4°
